Wind_Speed
16 17 17 17 20 21 22 22 22 22 21 19 19 19 18 17 17 16 14 13 12 10 10 10 9 10 10 11 12 13 14 14 14 13 14 13 11 10 9 9 9 8 9 9 10 12 12 10 10 9 9 10 10 11 12 11 11 12 13 13 13 14 14 14 13 11 7 5 2 3 2 3 4 5 6 7 7 7 7 5 5 6 7 8 9
19 19 20 20 20 22 22 22 22 22 21 19 18 20 20 18 17 17 16 12 11 11 11 11 10 10 10 11 12 13 15 15 14 14 14 14 13 11 9 9 9 9 9 10 11 12 12 11 10 10 10 10 11 12 12 10 10 10 10 11 12 12 13 13 12 10 7 5 1 2 3 4 5 5 6 7 7 5 3 3 5 6 8 8 9
23 22 21 22 21 22 22 22 21 20 21 21 19 19 20 19 18 17 17 13 11 12 13 13 12 11 10 12 14 14 15 15 15 15 14 14 13 11 10 10 10 10 9 9 10 10 11 11 10 10 10 10 11 11 10 9 9 9 10 10 11 11 11 12 12 10 7 4 1 2 3 5 5 4 5 6 5 3 2 2 3 5 8 8 7
23 24 23 23 23 24 24 23 21 20 21 22 20 19 19 19 18 17 16 14 12 12 14 14 14 14 12 14 16 15 16 17 16 15 14 14 12 10 10 11 10 9 9 9 9 10 11 11 11 10 9 9 9 8 7 7 7 7 8 9 10 10 10 11 12 11 9 6 2 0 2 4 5 5 5 5 5 5 4 3 3 4 7 8 7
22 24 26 27 26 26 26 24 23 22 22 21 19 18 17 17 17 16 16 15 14 12 13 15 16 16 15 15 16 16 15 16 16 14 14 14 12 11 11 11 11 10 9 9 10 11 11 11 10 9 8 7 6 6 5 5 5 5 7 8 9 10 10 11 11 12 11 9 6 3 1 3 5 6 6 5 4 6 8 7 6 6 8 9 10
24 22 24 27 29 28 27 27 26 25 23 21 19 18 18 18 18 17 16 17 16 14 14 16 16 17 17 16 15 15 14 14 13 12 13 13 13 12 12 12 12 11 10 11 11 11 11 10 9 8 6 5 5 4 4 3 4 5 6 8 10 10 10 10 11 12 11 9 8 6 3 3 5 5 5 6 5 6 10 10 9 10 10 9 8
27 25 22 23 27 29 30 29 28 27 25 23 21 21 20 19 19 19 18 18 18 17 16 16 16 17 17 16 16 14 14 13 13 13 13 14 14 13 13 13 13 12 11 12 12 11 9 8 7 6 4 4 4 3 2 2 4 6 7 9 10 11 11 11 11 12 11 10 9 8 6 5 5 4 6 8 9 9 11 12 12 12 10 8 7
29 28 26 22 22 26 29 29 29 28 27 26 25 24 23 21 20 20 20 20 19 20 19 17 16 17 17 17 16 15 14 15 15 15 15 16 16 14 14 14 13 13 12 11 11 10 8 6 5 4 4 5 4 2 1 3 5 6 8 9 10 11 12 12 12 12 12 11 9 8 7 7 6 5 6 9 11 11 11 12 12 12 10 8 8
30 30 29 25 22 22 25 27 28 28 28 29 29 27 25 25 23 22 22 22 21 21 21 19 17 17 18 18 17 16 15 16 16 16 17 18 17 16 17 17 15 14 12 11 10 9 8 6 4 4 5 5 4 2 2 4 5 7 9 9 11 12 12 12 12 12 13 12 11 10 9 8 7 6 7 8 9 9 10 11 11 11 11 11 12
31 32 30 27 23 21 21 23 25 27 28 29 29 29 28 28 27 25 25 23 23 23 22 21 19 18 19 18 17 17 16 17 17 17 17 18 17 17 18 18 16 14 12 10 9 7 7 6 5 5 5 5 5 4 4 5 6 7 9 10 12 13 13 13 13 12 12 13 13 12 10 9 9 8 8 8 8 8 8 11 11 11 13 13 13
33 33 33 30 25 22 21 20 20 22 25 28 29 30 30 30 28 27 26 25 24 25 24 23 21 20 20 18 17 17 17 17 18 18 17 16 16 16 17 17 16 13 11 9 7 7 7 7 5 5 5 6 6 6 6 6 7 9 11 12 14 14 15 16 16 14 14 14 14 14 13 11 10 9 9 9 8 7 8 10 11 12 14 15 14
35 35 35 33 29 27 23 19 17 18 22 26 28 28 29 30 29 28 26 25 25 25 25 24 23 22 21 18 17 17 17 18 18 18 17 16 16 16 16 15 13 11 9 7 6 7 8 7 5 4 5 7 8 8 9 9 9 10 13 14 14 15 16 18 18 18 16 16 15 15 15 14 13 11 11 10 8 7 8 10 12 13 14 14 14
37 37 36 35 32 29 24 18 16 18 20 22 24 25 26 27 27 27 26 24 25 26 25 25 24 23 21 18 17 17 17 17 17 17 16 16 17 16 14 12 11 10 8 7 7 8 8 6 4 4 6 8 10 10 10 11 10 12 14 14 15 17 19 20 20 19 17 16 16 16 16 16 15 14 13 11 9 8 8 9 11 12 13 13 13
38 38 37 35 32 28 23 19 17 17 17 19 22 23 23 23 23 24 24 23 24 25 25 25 24 23 21 19 17 17 17 17 16 15 15 16 17 14 12 11 11 10 8 8 8 8 7 5 4 5 7 9 11 11 11 11 11 13 14 15 19 22 22 22 21 18 15 15 16 16 17 17 16 16 15 13 10 9 9 8 10 11 12 12 12
39 40 38 34 31 28 25 23 20 18 18 18 20 21 21 20 20 21 21 22 23 24 25 25 24 23 21 20 19 18 18 17 16 15 15 16 16 13 11 12 11 9 9 9 8 7 6 4 5 7 8 11 12 12 13 13 13 15 17 18 22 23 23 23 21 17 15 16 17 18 17 18 17 16 15 13 11 10 9 9 10 11 11 11 11
40 40 40 34 31 29 27 25 23 22 22 20 20 21 20 18 18 18 19 21 22 23 25 24 23 22 21 21 20 19 18 17 16 17 16 15 14 12 12 13 12 10 10 10 7 6 5 5 7 8 9 12 13 12 14 16 17 19 20 21 23 23 24 23 21 18 18 19 21 21 20 18 17 16 15 15 14 12 11 11 11 11 11 11 10
39 39 37 33 31 30 26 23 23 25 25 24 22 21 20 18 17 16 16 18 21 23 24 24 22 22 22 21 21 20 19 17 17 17 16 15 14 13 14 14 11 10 10 9 7 5 5 6 8 9 10 12 12 12 15 18 20 21 21 23 24 24 25 23 21 20 21 22 24 24 22 20 19 17 16 15 15 15 13 12 11 11 10 10 10
38 39 33 28 29 27 24 22 22 25 25 25 24 22 20 20 18 17 17 16 18 21 22 23 22 22 23 22 22 21 19 17 18 18 17 16 15 13 13 12 10 10 10 9 6 5 6 6 7 9 9 10 12 13 15 17 20 21 22 24 25 25 25 23 22 23 24 25 25 23 21 20 19 17 17 16 16 16 14 12 11 10 10 10 10
37 36 30 29 29 25 23 23 23 26 26 25 25 23 22 22 20 19 18 16 17 19 21 21 22 23 23 23 22 21 20 18 19 19 17 17 16 14 12 11 10 10 10 10 7 6 8 8 8 8 8 9 11 12 14 16 19 21 22 24 25 25 25 23 23 24 25 27 25 22 20 19 19 17 17 16 16 15 14 12 12 11 11 11 11
34 30 28 31 30 26 25 25 24 25 26 25 25 25 25 24 22 21 20 19 19 20 21 21 23 25 25 24 23 22 21 19 19 19 17 17 16 14 11 10 11 11 10 11 10 8 9 10 11 11 10 11 12 13 14 16 17 19 20 23 25 25 25 24 24 24 25 26 25 22 21 20 19 17 16 16 16 16 14 13 13 13 13 13 13
33 28 26 29 29 27 26 25 24 24 25 27 26 26 27 26 25 24 22 22 21 20 21 22 23 26 26 25 24 23 22 20 19 19 18 17 16 14 12 11 12 12 11 11 11 10 11 12 13 13 14 15 16 16 17 18 19 19 20 22 25 26 25 24 24 25 25 26 25 23 22 22 20 17 17 17 17 18 17 15 15 14 14 14 14
34 30 26 26 28 28 26 25 26 26 27 29 28 27 28 28 28 27 25 25 23 22 22 22 24 26 27 25 25 24 23 21 20 20 18 16 15 14 13 12 12 11 10 10 12 12 14 15 15 16 16 18 19 20 21 22 23 23 23 23 25 26 26 25 24 24 25 26 26 25 24 23 21 18 18 19 19 18 17 17 17 16 15 15 16
35 34 29 28 29 28 26 26 27 29 29 29 28 28 28 30 30 29 28 26 25 23 23 24 25 26 26 26 26 25 24 22 22 21 18 15 13 12 13 12 12 11 10 11 12 13 15 16 15 15 16 18 20 21 23 25 26 27 27 27 27 28 28 27 26 25 25 26 26 26 26 25 23 20 19 20 20 19 18 18 18 17 16 17 17
34 33 31 30 32 30 26 26 27 29 29 28 28 28 29 31 32 30 29 27 25 25 25 26 26 25 26 27 26 26 25 24 23 21 18 15 13 11 11 12 12 12 12 12 13 15 15 15 13 13 15 17 18 19 22 25 27 29 29 30 30 29 29 30 30 28 27 26 26 26 26 25 23 20 20 20 20 20 19 20 20 19 18 18 18
33 31 30 31 35 32 25 24 26 28 29 28 29 29 29 31 32 31 30 28 27 27 27 27 27 26 26 27 27 26 25 25 24 22 19 16 15 13 13 13 13 12 12 12 13 14 14 13 13 13 15 17 18 19 21 23 26 28 30 31 31 31 30 31 32 31 30 28 27 26 25 24 22 21 20 20 20 20 20 20 19 18 17 18 19
33 32 31 32 36 33 23 21 24 25 26 27 28 28 27 28 30 32 31 29 28 29 29 28 28 28 27 26 27 27 26 25 25 23 20 18 17 16 15 15 14 14 14 14 14 14 14 14 13 14 16 19 21 23 24 25 26 27 30 31 32 32 32 31 30 30 30 29 28 25 23 22 22 21 21 21 20 20 20 20 19 18 18 20 21
32 30 29 30 33 30 22 19 21 20 20 22 23 23 22 23 26 29 31 30 29 30 30 30 29 28 27 26 26 26 26 26 25 24 22 20 19 18 17 16 16 16 16 17 16 16 16 16 16 17 19 21 23 26 27 28 28 29 30 31 32 32 32 31 29 28 28 30 29 25 23 23 23 22 22 21 20 20 21 22 23 23 23 25 25
29 28 28 29 30 26 20 19 20 19 20 20 20 21 19 19 20 24 29 31 30 31 31 31 30 30 28 27 25 25 25 26 26 25 24 23 22 21 19 19 19 19 18 17 18 18 19 20 20 20 21 22 24 26 29 30 30 29 29 29 32 32 32 31 29 26 26 27 29 28 25 25 25 25 24 22 21 21 21 23 25 26 25 25 25
27 27 28 29 28 25 21 21 21 21 22 22 22 23 21 20 18 20 25 29 30 32 32 31 31 31 29 27 24 24 25 27 28 27 26 25 25 24 23 23 22 20 19 19 20 21 22 22 22 23 25 26 27 29 30 31 32 32 30 29 32 33 33 32 30 28 26 26 28 30 29 28 28 28 26 24 23 23 23 24 26 27 26 25 26
24 25 28 29 30 27 24 23 23 22 23 23 24 24 23 21 18 18 22 26 29 31 32 31 31 31 29 27 25 24 25 27 28 28 27 27 27 26 26 24 23 22 21 21 22 23 24 25 25 26 27 28 29 31 33 34 35 36 35 33 34 35 34 33 31 30 29 28 28 30 32 32 31 30 27 25 24 25 25 24 25 27 27 28 29
22 25 28 30 30 28 25 24 24 24 25 25 24 24 23 21 19 18 20 23 26 28 31 32 30 29 29 28 26 25 26 28 28 28 28 28 27 27 26 25 24 22 22 22 23 24 25 26 27 28 29 30 32 33 34 36 37 37 34 33 35 36 35 34 33 32 32 32 30 31 34 35 32 30 27 25 24 24 24 23 23 24 26 28 30
23 26 29 29 27 26 23 23 24 26 28 28 25 23 21 19 18 18 19 23 25 26 29 31 29 28 29 29 27 27 27 28 29 29 28 28 27 27 27 26 24 23 23 24 23 23 24 25 27 29 30 31 31 33 35 36 39 40 36 32 33 35 35 35 35 34 34 34 32 34 36 35 31 29 27 24 23 23 22 22 21 21 23 25 27
26 25 24 26 27 25 23 23 24 27 31 31 26 21 18 16 16 16 19 22 25 26 28 30 30 29 29 29 28 28 29 29 30 30 29 28 27 26 25 24 24 24 24 23 23 22 24 26 28 30 31 31 31 32 35 36 40 43 38 31 31 32 33 35 36 35 35 34 34 36 38 36 31 29 26 23 22 22 22 22 19 19 21 23 25
27 25 22 22 23 24 23 22 20 24 30 31 25 21 18 16 16 17 19 23 26 28 29 31 31 30 30 30 29 30 31 31 32 32 30 29 27 25 22 22 22 23 23 23 23 24 26 29 31 31 32 31 30 30 31 34 41 44 37 31 30 30 32 35 36 35 35 35 36 39 38 35 31 26 22 20 20 21 22 21 19 19 21 23 25
26 27 27 25 25 26 28 26 22 22 28 31 27 23 20 19 18 19 21 24 27 30 31 32 32 32 31 32 32 32 33 33 34 33 31 29 26 24 22 21 21 22 23 24 25 27 28 29 30 31 31 29 26 24 25 30 39 44 38 32 30 30 32 35 35 35 36 37 38 39 36 33 28 22 18 17 19 20 21 19 18 18 20 22 23
29 27 28 28 30 30 31 32 28 24 25 29 29 27 26 24 23 23 22 23 27 30 32 33 33 33 33 33 34 35 36 36 35 33 30 27 25 23 22 22 22 24 25 26 26 27 27 26 27 27 25 23 21 21 25 30 36 41 39 34 31 31 34 37 36 36 37 38 39 37 33 30 25 18 15 17 18 19 18 16 16 18 19 21 22
35 33 33 31 32 31 29 30 32 29 27 29 29 29 29 28 27 27 24 24 28 32 33 34 34 34 34 34 36 38 39 39 37 34 30 26 23 23 23 24 26 27 26 25 25 25 23 22 21 18 16 18 21 26 33 37 38 39 39 36 33 33 36 38 37 38 38 39 37 33 30 27 22 17 16 17 18 18 16 16 18 19 20 20 19
32 32 37 37 34 33 29 27 29 29 29 30 30 29 30 30 30 30 28 26 29 33 36 36 36 35 35 35 37 40 42 42 38 34 31 28 25 24 25 27 28 28 27 25 24 22 19 16 14 14 16 21 28 35 42 43 38 35 36 36 35 36 36 37 37 38 38 36 33 29 26 23 18 15 16 17 17 17 16 18 19 19 18 19 20
31 30 35 39 40 40 40 37 35 35 35 35 37 36 35 36 36 35 35 32 31 34 39 40 38 37 37 37 40 43 45 43 39 34 31 29 28 27 27 28 29 28 25 23 21 17 14 14 15 19 23 28 34 40 43 41 34 31 33 35 35 36 36 36 36 35 34 31 28 25 23 20 17 16 16 16 17 18 18 18 18 18 19 21 23
33 34 35 37 37 39 45 47 44 42 41 41 42 43 43 44 43 42 43 41 36 35 39 41 40 39 40 41 43 45 46 44 39 35 32 32 31 30 31 31 29 25 23 22 19 16 15 17 20 24 29 34 38 39 39 35 31 30 32 33 33 33 34 34 33 31 28 25 23 22 20 19 17 17 16 17 17 18 17 17 17 19 21 23 25
28 34 39 41 39 37 40 42 39 38 39 40 43 46 48 49 49 48 48 46 42 38 37 40 42 43 44 45 44 45 46 44 39 36 35 34 33 33 33 31 26 24 23 21 18 17 19 22 25 29 33 34 34 32 31 29 28 29 30 29 29 30 31 31 30 27 24 21 20 19 18 17 18 18 18 18 18 17 17 17 19 21 23 24 25
23 24 31 40 44 43 42 41 41 42 42 43 46 49 51 52 53 54 52 48 44 42 40 41 44 45 46 46 45 45 46 42 38 36 35 35 34 33 31 27 24 24 23 20 19 21 23 24 26 29 30 29 27 25 24 23 23 24 24 25 26 28 29 28 26 23 20 18 17 16 15 17 18 19 20 20 18 17 17 19 21 23 24 24 24
28 24 25 32 39 41 40 37 36 37 39 41 44 48 52 53 52 53 52 46 43 44 44 44 47 49 49 47 46 46 45 41 39 37 36 36 34 31 27 26 26 25 21 19 21 22 22 22 25 27 26 24 22 21 20 20 20 21 22 23 25 26 26 24 22 19 18 16 14 14 16 18 20 21 21 19 18 17 18 20 22 23 24 24 24
30 26 24 27 33 38 40 38 34 32 35 40 43 45 49 51 53 53 50 46 45 46 46 46 49 52 51 50 50 48 45 43 41 39 38 35 30 27 27 28 28 24 20 19 18 17 19 22 25 27 25 22 20 19 18 19 19 20 21 22 22 22 21 20 19 17 16 14 13 15 17 19 20 20 19 17 17 18 19 21 23 24 25 25 25
32 31 27 25 29 34 38 40 40 37 37 40 42 43 43 45 49 52 50 47 48 50 51 52 54 56 56 56 55 52 49 48 45 40 35 31 29 30 30 29 25 21 16 13 13 15 20 23 25 26 23 20 19 19 18 18 20 20 20 19 18 18 17 17 15 15 14 14 14 16 17 18 18 17 16 16 17 18 21 22 24 25 26 27 26
33 33 30 27 28 31 34 37 38 37 39 41 44 48 49 46 48 53 54 51 53 56 58 58 58 59 60 60 59 56 53 49 42 35 30 31 32 30 26 23 19 15 11 11 15 19 21 23 25 25 21 19 19 19 18 18 19 18 17 17 16 16 15 14 14 14 14 14 15 16 16 16 16 16 16 17 18 20 22 24 25 26 27 27 26
37 37 36 35 35 36 36 37 37 37 40 43 46 52 54 51 53 59 59 56 56 57 57 56 54 53 53 53 52 51 46 39 33 31 33 33 29 23 18 17 14 12 13 17 20 20 22 24 24 22 20 19 18 18 18 18 17 16 16 16 16 15 15 14 14 14 14 14 15 16 16 16 16 17 18 19 20 21 23 25 26 27 27 28 27
42 42 43 43 44 46 46 45 44 45 47 49 50 52 52 50 52 59 59 58 58 55 49 46 45 41 39 38 38 37 34 32 33 34 32 27 22 18 16 14 14 16 18 20 20 20 22 23 22 21 20 19 17 17 18 16 15 15 16 16 16 16 16 15 15 14 15 15 16 16 16 16 17 18 19 20 20 22 24 25 27 28 29 29 28
42 44 45 46 46 48 48 49 49 49 50 51 52 53 52 50 51 54 54 52 53 49 40 35 35 32 28 27 29 31 33 33 32 29 24 20 17 15 15 16 18 18 17 17 18 20 21 21 21 21 21 18 15 16 17 16 16 17 17 17 17 16 16 15 14 14 15 16 17 17 17 18 19 20 20 20 21 23 24 25 27 29 30 29 28
40 41 43 45 46 46 47 48 50 51 54 55 55 53 51 47 46 49 49 45 43 41 36 31 29 28 28 30 32 32 29 25 22 19 16 13 13 13 13 14 15 14 15 16 18 19 20 20 20 20 20 17 14 14 16 17 17 18 18 18 17 17 17 16 15 15 16 17 18 18 19 19 19 20 19 20 22 23 24 26 29 30 30 29 29
38 36 35 38 41 41 40 40 41 43 44 43 41 40 38 34 35 37 36 33 29 29 30 31 31 31 30 29 26 23 20 18 17 16 15 14 14 12 10 10 11 13 15 17 18 19 19 19 18 19 19 17 14 14 17 18 17 18 19 19 18 17 17 16 16 16 17 18 19 20 20 20 20 20 20 21 22 23 25 28 31 31 30 29 29
Wind_Direction
210 216 217 212 210 209 211 210 210 212 212 209 208 210 214 214 217 217 214 216 221 227 234 238 240 243 243 240 234 231 235 237 239 242 246 249 250 250 255 261 263 263 264 264 265 270 276 285 287 285 288 292 301 308 310 314 316 315 317 322 327 328 327 329 329 327 327 332 303 216 204 188 189 193 199 206 217 243 265 275 265 254 248 246 254
212 215 216 215 213 211 213 213 213 214 214 214 210 211 216 218 219 221 221 221 225 231 238 244 246 245 243 234 225 225 230 234 236 240 244 246 247 249 249 251 254 257 261 260 260 267 275 282 282 283 289 296 304 309 313 317 319 324 329 329 329 330 332 334 334 335 343 353 329 209 195 194 199 191 200 222 229 226 241 270 276 275 264 246 245
215 214 214 215 216 215 216 216 217 217 217 219 217 214 216 220 219 219 223 227 231 235 239 245 247 245 239 228 221 223 227 231 233 236 241 243 244 246 246 248 251 254 258 261 262 268 273 277 278 281 287 295 303 310 322 331 333 339 336 330 332 337 338 338 340 345 356 8 5 196 186 200 216 206 204 231 244 228 200 224 247 280 283 268 245
221 217 216 217 217 218 219 221 220 218 219 222 223 219 218 220 220 219 225 233 237 238 241 244 245 244 239 228 224 223 225 228 232 234 238 243 243 241 245 250 254 256 257 259 265 271 273 273 275 280 288 297 306 316 331 340 342 340 332 332 340 346 348 348 348 353 359 5 8 345 193 214 229 215 203 219 247 275 293 280 264 280 283 279 266
238 224 219 221 223 223 222 224 225 223 223 225 225 223 219 219 220 222 228 236 240 239 241 244 245 245 243 238 233 231 228 228 232 235 238 242 243 241 244 248 250 252 253 258 268 276 273 272 275 280 289 299 304 314 328 340 349 343 332 339 350 355 359 357 355 1 4 1 358 342 257 230 234 223 216 227 240 267 283 291 294 283 278 278 271
255 241 228 225 227 229 229 228 228 229 229 228 227 225 222 222 224 228 231 235 240 241 241 244 247 248 248 250 250 244 238 234 234 237 237 241 243 243 247 249 249 251 255 263 270 275 273 271 276 280 283 290 294 307 329 342 359 4 353 350 352 357 3 2 359 6 8 3 358 346 323 280 261 248 239 247 246 247 264 279 281 274 284 289 266
255 256 247 235 229 231 233 232 231 232 232 231 230 229 228 229 230 233 237 237 241 243 244 246 248 250 251 253 253 246 237 235 236 237 239 244 245 245 249 251 252 255 259 265 266 266 269 269 267 268 269 272 279 290 319 341 4 13 5 353 347 350 356 0 1 5 7 4 359 350 340 325 299 270 250 252 258 256 262 274 278 280 292 287 250
251 256 256 249 239 234 233 235 235 235 235 233 232 233 233 235 235 237 241 242 242 244 247 250 250 253 254 253 252 246 234 230 234 237 240 245 245 244 247 251 254 257 260 261 260 260 266 269 258 255 255 255 264 273 304 335 356 360 356 350 344 345 349 353 357 360 0 360 356 350 342 333 328 304 268 260 266 269 269 270 277 289 298 285 269
249 254 257 256 254 245 236 234 235 235 236 236 235 236 236 236 237 238 241 245 246 245 249 252 252 253 254 253 252 247 235 230 234 236 239 241 242 241 245 250 252 254 257 255 253 255 262 266 257 250 249 250 257 266 294 324 341 341 341 341 338 341 344 345 351 353 351 352 351 347 344 336 329 315 296 286 278 276 274 271 275 288 297 298 301
245 251 256 258 257 252 245 239 235 234 233 235 236 236 237 236 236 237 240 246 248 248 250 252 252 253 255 254 250 244 236 231 234 236 237 238 239 242 246 250 250 251 251 248 246 249 255 259 257 250 247 247 252 261 282 311 326 327 329 330 330 334 337 338 343 346 343 344 344 342 342 339 332 322 313 305 289 277 269 264 267 277 288 295 299
239 245 250 255 255 253 253 245 234 231 230 231 232 233 235 235 234 235 238 242 247 249 248 249 252 252 256 256 247 241 236 232 234 236 238 239 241 246 249 249 248 247 244 239 237 242 248 252 250 243 244 251 262 277 292 305 314 318 319 322 327 331 334 336 339 342 340 338 339 338 336 333 332 329 321 316 302 285 272 262 262 268 276 286 294
233 239 244 248 251 251 250 244 234 229 227 228 230 230 231 232 231 231 233 237 241 245 245 246 250 251 254 254 243 235 232 232 234 236 239 241 244 247 247 243 241 238 233 225 222 234 245 249 245 241 245 258 274 286 296 305 309 311 314 320 331 337 339 340 342 341 339 336 336 336 333 331 330 327 324 324 317 292 273 263 263 267 273 285 295
230 233 238 241 246 249 247 242 236 229 224 224 228 230 229 229 228 227 228 231 235 240 243 244 247 249 252 251 241 231 229 231 233 234 235 237 241 243 240 233 228 224 221 217 215 228 244 253 251 248 247 258 273 281 292 304 306 306 314 325 337 341 341 342 343 342 340 339 340 339 336 334 329 324 323 325 321 307 290 273 270 273 275 280 285
229 230 233 239 245 249 247 242 236 230 225 223 226 230 231 231 228 225 223 224 229 235 240 243 244 246 249 247 237 228 227 229 230 232 231 231 235 236 228 220 217 212 212 216 217 223 243 261 261 257 255 264 276 281 288 297 300 305 314 325 334 337 338 339 338 339 343 346 346 344 340 336 331 325 321 320 318 313 305 290 278 276 274 274 276
230 231 233 240 246 249 249 245 239 234 231 227 225 227 230 232 231 227 223 221 225 231 237 241 241 242 243 239 231 226 225 226 228 230 229 227 229 227 217 213 211 205 207 217 219 220 239 259 259 263 270 279 285 286 292 300 305 309 313 320 328 332 334 336 335 331 336 342 344 343 338 332 329 324 317 313 312 308 297 286 278 276 275 273 272
231 233 235 239 244 247 249 248 244 240 237 230 222 221 224 226 228 228 225 221 223 228 235 239 240 239 237 233 227 223 222 223 225 228 226 222 222 216 211 212 209 201 204 213 216 221 239 252 252 261 272 281 289 294 301 310 315 314 314 317 322 326 328 332 333 326 325 332 336 337 335 329 324 321 314 309 310 308 298 286 281 279 278 278 278
232 233 236 238 239 242 246 249 244 237 231 225 219 218 221 223 224 225 225 221 220 224 231 235 236 233 230 227 224 221 222 223 224 227 225 219 217 212 209 210 206 199 202 208 211 220 241 251 251 261 272 280 293 305 310 315 318 317 315 315 318 321 324 328 330 327 323 324 327 329 330 327 322 316 312 309 308 308 302 292 285 283 283 284 283
234 236 239 234 232 237 241 244 240 229 223 221 221 221 221 222 222 222 223 221 220 222 228 232 231 227 224 222 220 219 221 223 224 227 223 218 218 214 209 209 205 202 205 211 213 220 238 251 254 264 275 278 287 303 313 319 322 319 315 314 316 319 323 325 326 327 325 323 324 324 325 324 319 312 309 306 305 305 299 288 280 276 273 272 271
238 239 234 222 224 233 235 235 233 228 227 227 229 229 227 224 221 221 222 223 222 223 227 229 226 222 219 218 218 218 221 223 225 227 222 218 220 218 213 209 209 210 210 217 227 234 241 250 257 261 268 271 279 295 310 320 326 325 320 317 317 318 320 322 322 324 325 325 325 323 319 318 315 310 306 303 302 300 292 278 270 265 262 263 266
236 236 223 216 222 229 230 229 226 226 231 234 237 238 232 227 223 221 221 222 221 220 223 225 222 218 215 214 215 217 219 223 226 227 224 221 222 222 217 211 214 219 220 225 237 249 255 260 265 266 267 269 277 288 299 310 320 326 327 326 323 319 317 317 317 319 321 323 324 321 314 313 312 309 306 303 300 296 285 271 264 261 261 264 269
232 235 223 216 220 225 227 225 219 220 228 233 237 238 234 228 223 220 219 219 218 218 220 221 219 216 214 213 214 216 219 223 226 228 227 226 225 225 222 216 219 224 227 232 241 255 267 273 276 278 277 277 281 286 291 300 309 316 323 329 330 325 317 312 312 315 317 319 321 320 315 313 313 309 305 302 299 294 284 273 268 267 268 271 273
232 237 232 219 215 219 221 217 212 216 226 231 233 235 233 227 223 220 219 217 216 216 218 220 217 215 214 214 215 217 219 222 227 229 230 230 229 228 226 224 226 229 233 240 247 256 267 276 282 286 287 287 289 289 289 293 299 305 312 321 330 332 324 313 308 309 312 314 316 316 314 313 311 307 303 301 300 293 281 272 270 270 273 274 275
231 233 234 224 213 215 220 218 216 219 226 231 232 232 230 225 223 222 219 217 217 216 217 218 218 216 215 215 216 218 219 222 226 229 229 231 231 229 227 227 230 235 240 247 254 259 266 273 282 290 294 295 297 296 292 291 294 299 304 310 320 330 330 322 312 306 306 309 310 311 313 312 308 304 301 301 299 292 280 271 270 272 275 278 280
229 228 231 226 214 213 219 220 219 220 223 226 228 230 229 226 225 224 221 220 219 218 217 216 216 216 217 217 217 219 220 222 225 228 228 227 226 222 221 224 228 234 240 247 254 260 265 273 281 289 293 295 298 298 296 294 294 296 300 305 311 320 327 326 320 312 307 306 308 310 312 311 306 302 300 299 296 290 281 275 274 277 282 286 287
229 227 226 223 216 214 217 217 218 219 220 222 227 230 231 230 228 226 225 222 220 220 218 216 215 216 218 219 219 220 221 223 226 228 227 225 224 220 218 220 222 226 233 241 250 257 265 273 280 285 288 291 295 299 301 301 300 298 299 302 306 312 319 322 322 318 312 309 309 311 312 308 302 298 297 297 294 286 279 275 274 279 284 289 290
230 227 223 221 219 216 216 218 219 219 220 224 229 231 232 233 232 230 227 223 221 221 219 216 215 216 218 221 222 222 223 224 226 228 227 226 225 223 222 224 224 225 230 238 246 256 265 273 278 281 284 287 290 294 298 301 304 304 302 301 303 306 312 316 319 320 319 317 314 311 311 309 303 297 294 295 293 286 280 274 271 273 279 285 286
225 220 216 220 220 215 215 221 220 218 217 219 223 226 228 230 231 230 228 224 221 221 221 218 216 217 219 222 224 224 226 227 228 229 228 227 226 225 225 228 232 234 237 242 249 258 266 271 277 282 285 287 289 290 293 296 301 305 303 300 299 301 306 310 314 318 321 322 319 313 311 311 307 301 296 294 291 286 280 275 272 275 280 284 284
216 212 220 228 221 211 210 213 209 207 207 211 218 225 229 230 230 230 229 225 221 222 223 219 217 218 219 222 225 225 228 230 231 231 230 228 228 228 229 233 238 241 244 249 254 260 265 268 273 279 283 286 287 289 292 295 298 301 302 301 298 296 300 305 309 314 318 321 320 316 313 311 308 304 300 294 290 286 282 277 276 277 280 282 281
211 216 227 226 212 204 205 202 199 202 210 218 224 229 233 235 235 233 230 227 222 222 225 223 219 219 219 222 224 224 226 228 230 230 229 229 229 231 234 238 242 245 249 254 257 259 263 267 271 275 278 281 284 286 290 292 295 296 298 302 301 296 295 298 303 308 312 316 316 314 313 310 306 303 299 294 288 285 283 278 274 274 276 277 277
217 224 223 213 207 209 208 204 204 208 213 220 225 230 234 235 237 236 234 233 226 223 226 227 222 219 219 222 224 224 224 224 226 227 228 229 231 233 236 240 244 248 251 254 257 259 263 267 271 274 276 278 280 282 285 288 291 292 290 292 297 296 292 292 297 302 306 308 309 310 311 309 305 303 300 294 288 287 288 283 276 273 274 275 277
213 215 212 208 208 212 212 215 220 223 223 225 227 231 233 232 235 237 236 238 234 226 226 229 227 220 218 220 223 223 222 222 223 224 226 229 232 235 239 242 246 249 250 253 257 260 264 267 269 270 272 273 276 280 282 285 290 291 287 284 289 291 289 288 292 297 302 303 304 307 309 306 302 301 300 295 290 290 289 284 280 277 276 276 280
216 211 209 210 211 214 224 234 240 240 237 232 228 229 232 232 237 239 235 236 235 230 228 231 229 222 218 220 221 222 223 222 222 223 225 229 233 236 239 242 246 249 251 254 257 260 261 262 263 264 266 267 271 275 277 279 283 286 285 282 282 284 284 285 287 293 299 300 302 306 307 303 300 298 298 295 290 287 285 283 284 285 283 282 285
224 222 221 225 227 230 239 245 247 246 241 234 229 228 233 240 245 245 239 233 229 226 228 231 230 223 219 220 221 223 224 223 222 223 226 229 233 235 237 241 245 248 250 253 256 257 259 261 263 265 266 267 269 271 273 276 278 280 281 281 280 280 281 283 285 291 296 298 301 305 305 302 300 296 294 291 287 284 284 285 287 289 288 288 287
226 231 230 231 233 234 240 244 245 242 237 233 230 230 236 246 251 248 242 234 225 222 225 230 230 225 219 219 220 222 224 224 223 224 227 230 232 233 234 237 241 244 248 251 254 259 264 266 267 268 268 270 271 272 276 279 279 281 284 284 282 280 280 282 285 290 293 296 299 302 302 300 298 294 289 286 283 282 282 282 284 285 285 286 287
241 245 242 238 236 239 247 251 245 234 231 230 230 232 236 244 251 252 247 239 229 222 222 226 229 226 221 218 219 220 222 223 224 225 228 229 229 230 232 237 241 245 248 251 255 262 266 268 269 270 271 274 275 279 285 285 283 285 288 287 284 282 281 282 285 288 291 294 297 300 300 296 293 289 284 282 283 282 280 279 280 281 282 283 286
247 252 253 253 251 252 259 258 244 227 226 231 233 234 237 243 250 255 253 245 235 227 222 223 227 228 223 219 218 218 220 222 224 226 228 229 230 231 234 240 243 246 252 257 262 266 269 269 270 273 278 279 280 288 293 294 293 290 286 285 285 282 280 280 283 285 288 292 296 299 297 292 287 282 280 282 283 280 277 278 279 280 282 284 286
242 248 251 256 258 258 262 254 239 231 233 238 241 241 241 244 249 252 254 249 240 232 225 222 224 227 225 222 220 218 219 222 225 227 228 231 234 236 239 243 245 251 259 263 264 266 268 268 267 272 281 280 284 293 294 296 299 294 284 282 281 278 278 280 281 284 288 293 296 296 291 286 281 278 275 277 280 280 281 284 285 285 287 289 290
239 244 243 245 250 253 252 243 234 237 243 246 249 249 247 247 250 253 254 251 243 235 229 224 223 226 227 225 222 222 222 224 226 226 227 230 234 239 242 244 248 256 263 263 261 262 261 258 258 265 272 276 285 293 292 292 297 292 282 279 278 277 280 282 282 286 290 294 294 290 283 279 276 272 270 272 279 284 287 288 288 289 293 295 297
242 244 238 237 242 246 245 241 240 245 249 252 254 256 255 254 255 256 254 251 247 239 233 228 225 226 227 226 225 226 227 227 227 226 226 229 234 240 243 245 252 259 260 256 253 250 247 251 261 268 273 280 287 290 288 289 291 286 281 279 278 279 283 285 285 289 291 290 287 282 277 275 273 270 270 274 282 288 289 289 290 294 299 301 301
247 247 240 238 245 246 241 240 243 247 250 254 256 258 258 257 256 257 254 250 248 244 238 234 229 226 227 228 227 228 230 230 230 229 231 235 238 240 243 248 254 255 249 243 239 239 250 263 272 276 282 288 290 287 284 285 285 280 279 279 279 281 284 285 286 288 287 283 278 274 273 275 274 272 274 279 284 287 287 289 294 299 303 303 303
245 245 240 238 245 250 245 241 241 242 244 248 252 257 260 257 254 255 253 249 249 249 245 239 232 228 228 230 230 231 233 233 233 234 237 240 240 242 246 249 248 240 232 229 233 250 268 276 281 283 285 287 287 282 278 278 277 276 276 277 279 282 283 283 283 282 279 275 271 270 272 273 272 273 277 282 284 284 286 294 300 304 305 305 304
250 255 249 242 242 249 252 250 248 247 249 251 253 256 257 254 252 254 255 253 253 252 249 242 235 230 230 231 232 234 234 234 234 236 238 240 242 245 245 240 232 224 221 228 248 269 280 284 288 288 285 282 279 275 272 273 273 273 274 277 280 281 280 280 278 275 272 271 271 271 268 265 266 271 277 281 282 286 294 302 305 306 306 305 306
256 263 264 252 243 240 241 243 245 247 248 250 251 253 254 253 252 254 256 256 254 250 248 244 237 231 230 231 232 234 233 232 233 234 236 240 242 240 232 222 216 214 222 246 267 277 284 289 292 290 283 278 275 271 271 273 273 272 274 277 279 278 276 275 272 270 270 271 270 268 265 264 269 274 277 281 286 294 300 304 306 307 307 307 309
255 255 256 250 242 236 234 237 240 237 234 235 240 244 250 254 256 257 257 258 256 250 247 244 238 232 229 229 231 231 230 230 230 232 235 236 232 222 213 210 211 219 239 262 271 275 285 293 293 287 280 276 275 273 273 273 273 274 275 276 275 272 269 268 267 270 274 275 272 270 269 272 275 277 282 288 294 298 301 303 305 308 309 310 312
254 250 245 238 233 230 233 239 241 238 236 237 240 243 245 249 254 256 255 253 249 243 239 237 233 229 227 227 229 229 227 227 227 229 229 224 212 203 204 209 219 233 249 260 268 281 291 292 286 279 275 276 277 277 275 273 273 274 275 274 270 263 260 262 267 274 278 277 275 276 279 282 284 287 293 298 300 300 301 304 307 310 312 312 312
254 248 242 240 237 234 236 242 246 247 247 248 251 254 251 247 246 248 248 246 241 234 231 229 227 225 225 225 225 224 224 224 225 221 211 201 196 199 208 220 231 239 245 260 279 289 290 284 277 273 273 275 277 276 274 272 272 273 271 267 260 255 256 261 269 276 278 278 281 287 291 293 295 298 302 304 304 303 303 305 307 310 312 314 313
256 251 246 247 250 250 252 255 258 261 262 261 261 261 259 254 245 239 240 242 240 234 232 231 228 226 226 226 226 226 225 221 213 199 190 189 194 206 219 226 231 244 265 280 286 283 277 273 271 269 270 272 274 275 275 274 273 269 263 258 254 255 258 263 269 276 281 285 291 296 299 301 302 303 305 305 306 305 304 305 308 310 313 315 314
259 258 256 255 256 257 258 259 259 262 264 265 263 262 261 256 244 233 231 234 234 232 233 236 234 230 230 230 228 223 214 199 188 184 186 193 203 213 220 229 249 269 278 279 276 270 267 267 266 267 269 271 275 278 277 273 267 259 253 252 253 256 259 265 273 280 285 291 297 300 303 305 304 304 305 306 307 307 306 307 309 310 313 314 313
263 263 262 261 261 262 262 262 262 263 264 266 267 268 268 261 247 233 226 224 223 222 226 233 232 225 220 213 201 191 185 182 183 188 194 202 213 226 240 257 269 272 267 262 261 261 262 263 264 268 272 275 279 279 273 265 257 251 250 252 254 257 263 268 275 280 286 295 301 304 306 305 304 306 306 306 307 307 307 306 307 309 312 314 315
267 265 264 263 262 263 265 267 268 268 268 268 269 271 270 263 249 234 225 220 219 217 215 214 207 194 183 178 176 176 180 186 193 202 211 220 233 243 248 253 256 253 247 249 253 256 258 262 266 271 276 279 279 272 266 262 256 249 249 252 254 258 263 267 272 280 290 299 304 306 306 306 307 308 306 304 306 307 306 304 305 309 313 315 315
270 269 268 267 264 264 268 271 270 268 266 263 263 264 262 256 248 237 226 218 211 197 182 174 169 165 166 172 178 185 195 204 215 228 242 253 254 247 235 235 244 245 243 245 249 253 258 262 266 270 274 276 272 265 263 262 257 251 251 253 255 258 262 266 273 283 293 302 305 305 305 307 308 308 306 304 305 304 302 303 306 311 314 313 314
Height
3179 3180 3181 3182 3184 3185 3186 3187 3189 3190 3192 3194 3195 3197 3198 3199 3200 3201 3202 3204 3205 3205 3206 3207 3207 3208 3209 3209 3210 3211 3212 3212 3213 3213 3214 3215 3216 3217 3218 3218 3218 3218 3218 3218 3218 3218 3218 3218 3218 3218 3218 3218 3218 3218 3218 3217 3217 3216 3216 3215 3214 3213 3212 3211 3210 3209 3209 3209 3209 3209 3209 3209 3210 3210 3210 3210 3210 3209 3209 3210 3210 3210 3209 3210 3210
3177 3178 3179 3181 3182 3183 3184 3186 3187 3189 3190 3192 3194 3195 3196 3197 3199 3200 3201 3202 3203 3204 3205 3205 3206 3207 3208 3208 3209 3210 3210 3211 3212 3212 3213 3214 3214 3215 3216 3217 3217 3217 3217 3217 3217 3217 3217 3217 3217 3216 3216 3216 3216 3217 3217 3216 3216 3215 3215 3214 3213 3213 3212 3211 3210 3209 3208 3207 3208 3208 3208 3209 3209 3209 3209 3209 3210 3210 3210 3210 3209 3208 3208 3208 3209
3175 3176 3177 3178 3180 3181 3182 3184 3186 3187 3189 3190 3192 3194 3195 3196 3198 3199 3199 3201 3202 3203 3204 3204 3205 3206 3207 3207 3208 3208 3209 3210 3210 3211 3212 3213 3213 3214 3215 3215 3215 3216 3216 3216 3216 3216 3216 3216 3216 3216 3215 3215 3215 3216 3215 3215 3215 3214 3214 3213 3213 3213 3212 3211 3210 3209 3207 3207 3207 3207 3207 3208 3208 3208 3208 3208 3209 3209 3210 3210 3210 3209 3207 3207 3208
3173 3174 3175 3176 3178 3179 3180 3182 3184 3186 3187 3188 3190 3192 3193 3195 3196 3197 3198 3199 3200 3202 3202 3203 3204 3205 3205 3206 3206 3207 3208 3208 3209 3210 3211 3212 3213 3213 3213 3213 3214 3214 3214 3214 3214 3214 3215 3215 3215 3215 3215 3215 3215 3215 3215 3214 3214 3214 3214 3213 3213 3212 3211 3210 3209 3208 3208 3207 3206 3206 3207 3207 3207 3207 3208 3208 3208 3208 3208 3209 3209 3209 3208 3206 3206
3170 3172 3173 3174 3175 3176 3178 3180 3182 3183 3185 3187 3189 3190 3192 3193 3195 3196 3197 3198 3199 3200 3201 3202 3202 3203 3203 3204 3204 3205 3206 3206 3207 3208 3209 3210 3211 3212 3212 3212 3212 3212 3213 3213 3213 3213 3213 3213 3213 3214 3214 3214 3214 3214 3214 3214 3215 3214 3214 3213 3213 3212 3211 3210 3209 3208 3207 3206 3206 3206 3206 3206 3206 3207 3207 3207 3207 3207 3207 3207 3208 3208 3207 3207 3206
3166 3168 3171 3171 3172 3174 3175 3177 3179 3180 3183 3185 3187 3188 3190 3192 3193 3194 3195 3196 3197 3198 3199 3200 3200 3201 3201 3202 3202 3203 3204 3205 3206 3207 3208 3209 3210 3210 3210 3210 3210 3211 3211 3211 3211 3212 3212 3212 3212 3213 3213 3213 3213 3214 3214 3215 3214 3214 3213 3212 3212 3211 3211 3210 3209 3208 3207 3206 3206 3206 3206 3206 3206 3206 3206 3206 3207 3207 3206 3206 3207 3207 3206 3206 3205
3163 3165 3167 3169 3170 3171 3172 3174 3176 3178 3180 3183 3184 3186 3187 3189 3191 3192 3193 3194 3195 3196 3197 3198 3199 3199 3199 3200 3201 3202 3203 3204 3205 3206 3207 3207 3208 3208 3208 3208 3208 3209 3209 3210 3210 3210 3211 3211 3212 3212 3212 3213 3213 3214 3214 3214 3214 3213 3213 3212 3211 3211 3211 3210 3209 3208 3207 3206 3206 3206 3205 3205 3205 3205 3205 3205 3206 3206 3205 3205 3205 3205 3205 3205 3204
3161 3162 3163 3165 3167 3168 3170 3172 3174 3176 3178 3180 3181 3183 3185 3186 3188 3190 3191 3192 3193 3194 3194 3196 3197 3197 3198 3198 3199 3200 3202 3203 3203 3204 3205 3205 3206 3207 3207 3206 3206 3207 3208 3208 3208 3209 3210 3210 3211 3211 3212 3212 3213 3213 3213 3213 3213 3212 3212 3212 3211 3210 3210 3209 3209 3208 3207 3206 3206 3205 3205 3205 3204 3204 3204 3204 3204 3204 3204 3203 3203 3203 3203 3203 3203
3158 3160 3161 3162 3164 3166 3168 3170 3172 3174 3175 3177 3178 3180 3182 3183 3185 3187 3188 3189 3191 3192 3192 3193 3195 3195 3196 3196 3197 3198 3200 3201 3201 3202 3203 3203 3204 3205 3205 3204 3205 3205 3206 3207 3207 3208 3209 3210 3210 3211 3211 3212 3212 3212 3212 3212 3212 3211 3211 3211 3211 3210 3209 3209 3208 3207 3207 3206 3206 3205 3205 3204 3204 3203 3203 3203 3203 3203 3202 3202 3201 3201 3200 3200 3200
3156 3157 3159 3160 3162 3163 3165 3167 3169 3171 3172 3174 3176 3177 3178 3180 3181 3183 3185 3187 3188 3189 3190 3191 3192 3193 3193 3194 3195 3196 3198 3199 3199 3200 3201 3201 3202 3203 3202 3202 3203 3204 3205 3206 3206 3207 3208 3209 3209 3210 3210 3211 3211 3211 3211 3211 3210 3211 3211 3210 3210 3209 3209 3208 3208 3207 3206 3206 3205 3204 3204 3203 3203 3202 3202 3202 3202 3202 3201 3200 3200 3200 3199 3199 3199
3154 3156 3157 3158 3160 3162 3163 3164 3166 3168 3169 3171 3172 3173 3175 3176 3178 3180 3182 3184 3185 3186 3188 3189 3190 3191 3191 3192 3193 3194 3196 3197 3197 3198 3199 3199 3200 3201 3200 3201 3201 3203 3204 3205 3206 3206 3207 3207 3208 3209 3209 3209 3210 3210 3210 3210 3210 3210 3210 3210 3209 3209 3208 3208 3208 3207 3206 3205 3204 3204 3203 3202 3202 3201 3201 3201 3201 3201 3200 3200 3199 3199 3198 3198 3199
3152 3154 3155 3156 3158 3159 3160 3162 3163 3165 3166 3167 3168 3170 3171 3173 3174 3176 3179 3181 3182 3183 3185 3186 3187 3188 3189 3190 3191 3192 3193 3194 3195 3196 3197 3197 3198 3198 3199 3199 3201 3202 3203 3204 3205 3205 3206 3206 3207 3208 3208 3208 3208 3208 3209 3209 3209 3209 3209 3209 3209 3208 3208 3207 3207 3206 3205 3204 3203 3203 3202 3201 3200 3200 3200 3199 3199 3199 3199 3199 3198 3198 3197 3197 3197
3149 3151 3152 3153 3155 3156 3157 3159 3161 3162 3163 3164 3166 3167 3168 3169 3171 3172 3175 3178 3180 3181 3182 3183 3185 3186 3187 3188 3189 3190 3191 3192 3193 3194 3195 3196 3196 3197 3198 3199 3200 3201 3202 3203 3204 3204 3205 3205 3206 3207 3207 3207 3207 3207 3208 3208 3209 3209 3209 3208 3208 3208 3207 3206 3206 3205 3204 3203 3202 3201 3201 3201 3200 3199 3198 3198 3198 3198 3198 3198 3197 3197 3197 3196 3196
3146 3147 3149 3150 3151 3153 3155 3157 3158 3159 3161 3162 3163 3164 3165 3167 3168 3169 3171 3174 3176 3178 3179 3181 3182 3183 3185 3186 3187 3188 3189 3190 3192 3192 3193 3194 3194 3196 3197 3198 3199 3200 3201 3202 3203 3204 3204 3204 3205 3206 3206 3206 3206 3206 3207 3208 3208 3208 3208 3208 3207 3206 3206 3205 3204 3203 3202 3202 3201 3200 3199 3199 3199 3198 3197 3196 3196 3195 3195 3195 3195 3195 3195 3195 3195
3142 3144 3145 3147 3148 3150 3152 3154 3155 3157 3158 3160 3161 3162 3163 3164 3165 3167 3168 3171 3173 3175 3176 3178 3180 3181 3183 3184 3185 3186 3187 3189 3190 3191 3191 3192 3193 3195 3196 3197 3198 3199 3201 3201 3202 3203 3203 3204 3204 3205 3205 3205 3205 3206 3206 3207 3208 3208 3207 3207 3206 3205 3204 3203 3203 3202 3201 3200 3200 3199 3198 3197 3197 3196 3195 3195 3194 3194 3194 3194 3193 3193 3193 3193 3193
3139 3140 3142 3144 3146 3147 3148 3150 3152 3154 3155 3157 3158 3159 3160 3161 3163 3164 3166 3168 3170 3172 3173 3175 3177 3179 3180 3181 3183 3184 3186 3187 3188 3188 3189 3190 3192 3194 3195 3196 3197 3198 3199 3200 3201 3201 3202 3202 3203 3203 3204 3204 3205 3205 3205 3205 3206 3206 3206 3205 3204 3204 3203 3202 3201 3200 3200 3199 3198 3197 3196 3195 3195 3194 3194 3193 3192 3192 3192 3192 3192 3192 3192 3191 3191
3134 3136 3138 3140 3142 3144 3145 3147 3149 3150 3152 3154 3155 3157 3158 3159 3161 3162 3163 3165 3167 3168 3170 3172 3174 3176 3177 3179 3181 3182 3184 3185 3186 3186 3187 3189 3190 3192 3193 3195 3196 3197 3198 3199 3200 3200 3201 3201 3202 3202 3203 3203 3203 3204 3205 3204 3204 3204 3204 3203 3203 3202 3201 3200 3199 3199 3198 3197 3197 3196 3194 3193 3193 3192 3191 3191 3190 3190 3190 3189 3189 3189 3189 3189 3189
3130 3132 3135 3137 3139 3141 3142 3144 3145 3147 3149 3150 3152 3154 3156 3157 3158 3160 3161 3163 3165 3166 3167 3169 3171 3173 3175 3177 3178 3180 3182 3184 3184 3185 3186 3187 3189 3190 3192 3193 3195 3196 3196 3197 3198 3199 3199 3200 3200 3201 3202 3202 3202 3203 3204 3203 3203 3202 3202 3201 3200 3200 3199 3198 3197 3197 3196 3195 3194 3194 3193 3192 3191 3190 3190 3189 3189 3188 3188 3187 3187 3187 3187 3187 3188
3127 3129 3132 3134 3135 3137 3139 3140 3142 3144 3146 3147 3149 3151 3153 3154 3156 3158 3160 3161 3163 3164 3165 3166 3168 3170 3172 3174 3176 3178 3180 3181 3182 3183 3184 3185 3187 3188 3190 3192 3193 3194 3195 3195 3196 3197 3198 3198 3199 3200 3201 3201 3202 3202 3202 3202 3201 3200 3200 3199 3198 3197 3197 3196 3195 3194 3194 3193 3192 3192 3192 3191 3190 3189 3188 3187 3187 3187 3186 3186 3185 3185 3185 3185 3185
3123 3126 3128 3130 3132 3134 3135 3137 3139 3141 3143 3144 3146 3148 3150 3151 3153 3155 3157 3159 3160 3161 3162 3163 3165 3167 3169 3171 3174 3176 3178 3179 3180 3181 3182 3183 3185 3186 3188 3190 3191 3192 3193 3194 3194 3195 3196 3196 3197 3198 3199 3200 3200 3200 3200 3200 3199 3199 3198 3197 3196 3195 3194 3194 3193 3192 3192 3191 3190 3190 3189 3189 3188 3188 3187 3186 3185 3185 3185 3184 3183 3183 3183 3183 3183
3119 3122 3124 3126 3129 3131 3133 3134 3136 3138 3140 3141 3143 3145 3147 3149 3150 3152 3154 3156 3157 3158 3159 3160 3162 3164 3166 3169 3171 3173 3175 3176 3177 3178 3179 3181 3183 3185 3186 3188 3189 3190 3191 3192 3192 3192 3193 3193 3194 3195 3196 3197 3198 3198 3198 3197 3197 3196 3196 3195 3194 3193 3192 3191 3191 3190 3190 3189 3188 3188 3187 3186 3185 3185 3185 3184 3184 3183 3183 3182 3182 3181 3181 3181 3181
3116 3119 3121 3123 3125 3128 3129 3131 3133 3134 3136 3138 3140 3142 3143 3145 3147 3149 3151 3153 3154 3155 3157 3158 3159 3161 3163 3166 3168 3171 3173 3174 3175 3176 3177 3179 3181 3182 3184 3185 3186 3188 3188 3189 3190 3190 3190 3191 3191 3192 3194 3195 3195 3196 3196 3195 3194 3194 3193 3192 3191 3191 3190 3189 3189 3188 3188 3187 3186 3186 3185 3184 3184 3183 3183 3182 3182 3182 3181 3180 3180 3180 3179 3179 3179
3112 3116 3118 3119 3122 3124 3126 3127 3129 3130 3133 3135 3137 3138 3140 3142 3144 3146 3148 3149 3151 3152 3154 3155 3157 3159 3161 3163 3166 3168 3170 3171 3172 3173 3175 3177 3178 3180 3182 3183 3184 3185 3186 3187 3187 3188 3188 3189 3190 3190 3192 3192 3192 3193 3193 3193 3192 3191 3190 3190 3189 3188 3187 3187 3186 3186 3186 3185 3184 3184 3183 3182 3182 3181 3180 3180 3180 3180 3179 3179 3178 3178 3178 3177 3177
3108 3111 3114 3116 3119 3121 3123 3124 3125 3127 3130 3132 3134 3136 3138 3140 3142 3143 3145 3146 3148 3149 3151 3152 3154 3156 3158 3160 3163 3165 3167 3168 3169 3171 3173 3175 3176 3178 3179 3180 3182 3183 3183 3184 3185 3186 3186 3187 3188 3188 3189 3189 3189 3189 3189 3190 3190 3189 3188 3187 3186 3186 3185 3184 3184 3183 3183 3183 3182 3181 3180 3180 3179 3179 3178 3178 3178 3178 3177 3177 3177 3177 3177 3176 3175
3106 3108 3110 3113 3115 3118 3121 3122 3123 3124 3126 3129 3131 3133 3135 3137 3139 3141 3142 3143 3145 3146 3147 3149 3151 3153 3155 3157 3159 3162 3164 3165 3166 3168 3170 3172 3174 3175 3176 3178 3179 3180 3181 3181 3182 3183 3183 3184 3185 3185 3186 3186 3186 3186 3186 3186 3187 3187 3186 3185 3184 3184 3183 3182 3181 3181 3180 3180 3179 3179 3178 3177 3177 3176 3176 3176 3176 3175 3175 3175 3175 3175 3175 3174 3174
3102 3105 3108 3110 3112 3116 3118 3119 3120 3121 3123 3126 3128 3130 3132 3134 3136 3137 3139 3140 3142 3143 3144 3146 3148 3150 3152 3154 3156 3158 3160 3162 3163 3165 3168 3170 3171 3172 3173 3174 3176 3177 3178 3179 3179 3180 3180 3181 3182 3182 3183 3183 3183 3183 3183 3184 3184 3184 3183 3183 3182 3181 3180 3180 3179 3178 3178 3178 3177 3177 3176 3176 3175 3175 3174 3173 3173 3173 3173 3173 3173 3173 3173 3172 3172
3099 3101 3105 3107 3110 3114 3115 3116 3118 3119 3121 3123 3126 3128 3130 3131 3132 3134 3135 3137 3138 3139 3140 3142 3144 3147 3149 3151 3153 3155 3157 3159 3161 3162 3165 3167 3168 3169 3170 3171 3173 3174 3175 3176 3176 3177 3178 3179 3180 3180 3181 3181 3181 3181 3180 3180 3181 3181 3180 3179 3178 3178 3178 3177 3176 3175 3175 3175 3175 3174 3174 3174 3173 3173 3172 3171 3171 3171 3171 3171 3170 3170 3170 3170 3169
3094 3097 3101 3104 3108 3111 3112 3114 3116 3117 3119 3121 3124 3125 3127 3128 3129 3130 3131 3133 3135 3136 3137 3139 3141 3143 3146 3148 3151 3153 3155 3156 3158 3160 3161 3163 3164 3166 3167 3168 3169 3171 3172 3173 3174 3174 3175 3176 3177 3178 3178 3179 3178 3177 3177 3177 3177 3177 3176 3175 3174 3174 3174 3173 3173 3172 3172 3172 3171 3171 3171 3171 3170 3170 3169 3169 3168 3168 3168 3168 3167 3166 3166 3166 3166
3091 3094 3097 3100 3104 3108 3110 3111 3113 3115 3116 3118 3120 3122 3123 3124 3126 3127 3128 3130 3132 3133 3134 3135 3137 3139 3142 3145 3148 3150 3152 3153 3154 3156 3157 3159 3161 3162 3163 3165 3166 3168 3169 3170 3171 3172 3172 3174 3175 3175 3176 3176 3175 3174 3173 3173 3173 3172 3172 3171 3170 3170 3170 3169 3169 3169 3168 3168 3168 3168 3168 3168 3167 3167 3166 3165 3165 3165 3164 3164 3164 3163 3163 3162 3162
3089 3091 3094 3097 3102 3105 3107 3109 3110 3111 3113 3115 3116 3118 3119 3121 3122 3124 3125 3126 3128 3130 3130 3131 3133 3135 3139 3142 3145 3147 3148 3149 3150 3152 3153 3155 3157 3158 3160 3161 3163 3165 3166 3167 3168 3169 3170 3171 3172 3172 3173 3172 3171 3170 3170 3169 3169 3168 3167 3167 3166 3166 3165 3165 3165 3165 3166 3166 3166 3166 3165 3165 3164 3163 3163 3162 3162 3161 3161 3161 3160 3160 3160 3159 3159
3089 3091 3094 3097 3101 3104 3106 3107 3108 3109 3110 3111 3113 3115 3116 3117 3118 3120 3121 3122 3124 3126 3126 3127 3129 3132 3135 3138 3141 3142 3144 3145 3146 3148 3149 3151 3153 3155 3156 3158 3159 3161 3162 3163 3165 3166 3167 3168 3169 3169 3169 3169 3168 3167 3167 3166 3164 3163 3163 3164 3163 3162 3161 3161 3162 3162 3163 3163 3163 3162 3162 3161 3160 3159 3159 3159 3158 3158 3158 3158 3157 3157 3157 3156 3155
3090 3092 3095 3097 3099 3101 3103 3104 3106 3107 3108 3109 3110 3112 3113 3113 3114 3116 3117 3118 3119 3121 3122 3123 3125 3128 3131 3133 3136 3138 3140 3141 3142 3144 3145 3147 3149 3151 3152 3154 3156 3157 3159 3160 3162 3163 3164 3165 3165 3164 3165 3165 3165 3164 3163 3162 3160 3159 3159 3160 3160 3159 3158 3158 3159 3159 3159 3160 3159 3159 3158 3157 3156 3156 3155 3155 3155 3154 3154 3154 3153 3153 3152 3152 3152
3089 3090 3092 3094 3096 3097 3099 3101 3102 3104 3105 3106 3107 3108 3108 3109 3110 3112 3113 3114 3115 3117 3118 3119 3121 3124 3126 3128 3131 3133 3135 3136 3138 3140 3141 3143 3145 3147 3149 3151 3152 3153 3155 3156 3158 3160 3160 3161 3161 3161 3161 3161 3162 3161 3160 3158 3156 3155 3156 3155 3155 3156 3156 3155 3155 3156 3156 3157 3156 3155 3154 3153 3152 3152 3152 3151 3151 3151 3151 3150 3150 3149 3149 3148 3148
3087 3088 3089 3091 3093 3095 3096 3098 3100 3101 3102 3103 3103 3104 3105 3106 3107 3107 3108 3109 3111 3113 3114 3115 3116 3119 3121 3124 3126 3128 3130 3131 3133 3135 3137 3139 3141 3143 3146 3147 3148 3149 3151 3152 3154 3155 3156 3157 3157 3157 3157 3157 3158 3157 3156 3154 3150 3148 3152 3154 3152 3151 3152 3151 3152 3153 3153 3153 3152 3151 3151 3149 3149 3149 3148 3148 3148 3147 3147 3147 3146 3145 3145 3145 3144
3082 3084 3085 3087 3089 3091 3093 3095 3097 3098 3099 3100 3100 3101 3103 3103 3103 3103 3104 3105 3107 3108 3110 3110 3111 3114 3116 3118 3120 3123 3124 3126 3128 3130 3133 3135 3138 3140 3142 3143 3144 3145 3146 3147 3150 3151 3152 3152 3152 3152 3152 3153 3154 3154 3153 3151 3146 3144 3148 3151 3149 3147 3147 3147 3148 3149 3149 3149 3148 3148 3147 3146 3146 3146 3145 3145 3145 3144 3144 3143 3143 3142 3142 3142 3141
3079 3079 3080 3082 3085 3087 3089 3091 3093 3094 3095 3096 3097 3099 3100 3100 3100 3100 3099 3100 3101 3103 3105 3106 3107 3109 3111 3113 3115 3117 3119 3121 3123 3125 3128 3131 3133 3136 3138 3139 3139 3140 3142 3144 3146 3147 3148 3148 3148 3148 3149 3150 3151 3151 3150 3148 3145 3143 3143 3144 3143 3143 3143 3143 3144 3144 3145 3145 3145 3144 3144 3143 3142 3142 3142 3142 3141 3141 3141 3140 3139 3139 3139 3138 3138
3077 3078 3078 3079 3080 3082 3084 3086 3087 3089 3091 3092 3094 3095 3096 3096 3096 3095 3095 3095 3095 3096 3099 3101 3102 3104 3105 3107 3109 3111 3113 3115 3118 3121 3123 3126 3129 3131 3133 3134 3134 3136 3139 3141 3142 3143 3144 3144 3144 3145 3146 3146 3146 3147 3146 3144 3142 3141 3139 3139 3139 3139 3140 3140 3140 3141 3141 3141 3141 3141 3140 3139 3139 3139 3139 3139 3138 3138 3138 3137 3136 3136 3135 3134 3133
3073 3075 3076 3077 3078 3079 3081 3083 3084 3085 3086 3088 3090 3091 3091 3091 3091 3091 3091 3091 3089 3090 3093 3095 3097 3098 3100 3102 3103 3104 3106 3109 3113 3116 3119 3123 3125 3127 3128 3129 3131 3133 3135 3137 3138 3139 3140 3140 3141 3141 3141 3141 3141 3141 3140 3138 3138 3137 3136 3136 3136 3137 3137 3137 3137 3137 3138 3138 3137 3137 3136 3136 3136 3136 3136 3136 3135 3135 3134 3133 3133 3132 3131 3130 3129
3068 3069 3070 3072 3074 3076 3077 3079 3080 3080 3081 3083 3084 3085 3086 3085 3086 3086 3086 3085 3084 3084 3086 3089 3091 3093 3095 3096 3097 3098 3100 3103 3108 3112 3116 3119 3121 3123 3124 3126 3127 3129 3131 3133 3134 3135 3136 3136 3136 3136 3136 3136 3136 3135 3134 3133 3133 3133 3133 3133 3133 3134 3134 3134 3134 3135 3135 3134 3134 3133 3133 3133 3133 3133 3133 3133 3132 3131 3131 3130 3129 3128 3128 3127 3126
3062 3064 3065 3067 3070 3070 3071 3072 3074 3076 3077 3079 3079 3079 3080 3080 3081 3081 3080 3079 3079 3079 3080 3083 3086 3088 3089 3090 3092 3093 3095 3098 3103 3108 3112 3115 3117 3119 3121 3123 3124 3126 3127 3128 3130 3131 3132 3132 3132 3132 3132 3132 3131 3130 3130 3130 3129 3129 3129 3129 3130 3130 3131 3131 3131 3131 3131 3131 3131 3131 3131 3130 3130 3130 3130 3130 3129 3128 3127 3127 3126 3125 3124 3123 3122
3056 3058 3060 3062 3064 3065 3066 3068 3069 3071 3072 3073 3074 3074 3073 3074 3075 3074 3073 3074 3075 3075 3075 3077 3080 3082 3084 3085 3088 3089 3091 3096 3101 3106 3109 3112 3114 3116 3118 3120 3121 3123 3124 3125 3127 3128 3128 3128 3128 3129 3129 3129 3128 3127 3126 3126 3126 3126 3126 3126 3127 3127 3127 3127 3128 3128 3128 3128 3128 3128 3128 3127 3126 3126 3126 3126 3126 3125 3124 3123 3122 3122 3121 3119 3118
3051 3053 3055 3057 3059 3061 3063 3064 3065 3066 3067 3068 3069 3068 3067 3068 3068 3067 3069 3070 3071 3071 3071 3072 3074 3077 3079 3082 3084 3086 3089 3094 3099 3103 3106 3108 3111 3113 3115 3117 3118 3119 3121 3123 3124 3124 3124 3124 3125 3126 3125 3125 3125 3124 3123 3124 3124 3123 3123 3123 3123 3123 3123 3123 3124 3124 3125 3125 3125 3125 3125 3124 3123 3123 3123 3123 3122 3121 3120 3120 3119 3118 3117 3115 3114
3049 3051 3052 3053 3055 3057 3058 3058 3058 3059 3062 3063 3063 3063 3063 3063 3062 3063 3066 3068 3068 3068 3069 3069 3070 3073 3076 3079 3081 3083 3086 3091 3095 3099 3102 3104 3107 3109 3111 3113 3115 3117 3118 3119 3119 3119 3120 3120 3121 3121 3121 3121 3121 3121 3120 3121 3121 3120 3120 3120 3119 3119 3120 3120 3121 3122 3122 3123 3123 3122 3122 3121 3121 3121 3120 3120 3119 3118 3117 3117 3116 3115 3113 3112 3111
3046 3047 3049 3050 3052 3053 3053 3052 3052 3053 3055 3056 3056 3056 3058 3059 3060 3062 3064 3065 3066 3067 3067 3066 3067 3069 3072 3074 3076 3079 3083 3087 3091 3094 3097 3100 3103 3105 3108 3110 3111 3113 3114 3114 3115 3116 3116 3116 3116 3116 3116 3117 3117 3117 3117 3117 3117 3116 3116 3116 3116 3116 3117 3118 3118 3119 3120 3120 3120 3120 3119 3119 3118 3118 3117 3117 3116 3115 3114 3113 3112 3111 3110 3108 3107
3042 3043 3044 3047 3049 3050 3051 3050 3049 3050 3051 3051 3051 3052 3053 3055 3056 3057 3058 3059 3060 3061 3061 3061 3061 3063 3066 3069 3072 3076 3079 3082 3084 3087 3091 3095 3098 3101 3104 3106 3108 3110 3110 3111 3111 3112 3112 3112 3111 3111 3112 3113 3113 3113 3114 3114 3113 3113 3112 3112 3113 3114 3115 3115 3116 3117 3117 3117 3117 3117 3117 3116 3115 3115 3114 3114 3113 3112 3111 3110 3108 3107 3106 3105 3104
3038 3040 3041 3043 3044 3046 3047 3046 3046 3046 3046 3046 3047 3048 3048 3049 3050 3050 3049 3050 3053 3055 3055 3056 3057 3059 3062 3066 3069 3072 3074 3076 3078 3082 3086 3091 3095 3098 3101 3104 3106 3107 3108 3107 3108 3108 3108 3107 3107 3107 3108 3109 3109 3109 3110 3110 3110 3109 3110 3110 3111 3112 3113 3113 3114 3115 3115 3115 3115 3115 3114 3113 3112 3112 3111 3110 3109 3108 3107 3106 3105 3104 3102 3101 3100
3035 3036 3037 3039 3040 3041 3041 3041 3041 3042 3042 3042 3042 3043 3043 3042 3043 3043 3041 3042 3045 3050 3054 3058 3061 3062 3064 3067 3070 3072 3074 3076 3078 3080 3084 3089 3092 3096 3099 3101 3103 3104 3104 3104 3104 3104 3103 3103 3103 3104 3105 3106 3106 3106 3106 3107 3106 3107 3108 3108 3109 3110 3111 3112 3112 3113 3113 3112 3112 3111 3111 3110 3109 3108 3108 3107 3106 3105 3103 3102 3101 3100 3099 3097 3096
3030 3031 3033 3034 3035 3035 3035 3036 3036 3036 3036 3036 3037 3038 3039 3038 3037 3038 3037 3036 3039 3045 3052 3059 3063 3064 3065 3068 3071 3073 3076 3078 3079 3080 3083 3086 3088 3092 3094 3096 3098 3099 3100 3101 3101 3100 3100 3100 3100 3100 3101 3102 3103 3103 3103 3103 3104 3105 3106 3107 3108 3109 3109 3110 3110 3110 3110 3109 3109 3108 3107 3107 3106 3105 3104 3103 3103 3101 3100 3099 3097 3096 3095 3094 3093
3024 3026 3027 3029 3029 3029 3030 3030 3030 3030 3029 3029 3030 3033 3035 3035 3035 3037 3037 3036 3037 3043 3050 3055 3058 3060 3062 3065 3068 3072 3075 3077 3078 3079 3081 3083 3085 3088 3089 3090 3092 3094 3095 3097 3097 3097 3098 3097 3097 3097 3097 3099 3101 3101 3100 3101 3102 3103 3104 3105 3106 3107 3107 3107 3108 3108 3107 3107 3106 3105 3104 3104 3103 3102 3102 3101 3100 3098 3097 3095 3094 3093 3091 3090 3088
3018 3019 3020 3022 3023 3023 3023 3023 3022 3022 3022 3021 3023 3026 3028 3030 3032 3034 3036 3036 3037 3041 3046 3049 3052 3056 3059 3062 3067 3070 3073 3075 3076 3077 3079 3081 3083 3084 3085 3086 3087 3089 3091 3093 3093 3094 3095 3094 3094 3094 3095 3096 3098 3099 3099 3099 3101 3102 3102 3103 3104 3105 3105 3105 3106 3106 3105 3105 3104 3103 3102 3101 3100 3100 3099 3098 3097 3095 3094 3092 3090 3089 3088 3086 3085
3014 3015 3015 3016 3016 3016 3017 3016 3015 3015 3016 3016 3017 3020 3023 3026 3030 3032 3033 3036 3039 3042 3044 3047 3051 3055 3059 3062 3066 3068 3070 3072 3074 3075 3077 3078 3080 3081 3082 3083 3084 3086 3088 3089 3090 3091 3092 3092 3092 3092 3092 3094 3096 3097 3097 3097 3099 3100 3101 3101 3102 3102 3103 3104 3104 3104 3103 3102 3102 3101 3100 3099 3098 3097 3097 3096 3094 3092 3090 3088 3087 3085 3084 3082 3081